Flight Track Log - Related Links

Times and Time Zones

All times are in EDT time to prevent confusion due to time zone crossing. See the N929DE flight status page for this flight to view local times or setup timezone preferences in your user account.

Time Position Orientation Groundspeed Altitude Reporting Facility
EDT Latitude Longitude Course Direction KTS MPH feet Rate Location/Type
Fri 01:28:17 PM 42.0819 -94.5789 76° East 135 155 3,500  Level Minneapolis Center
Fri 01:29:19 PM 42.0842 -94.5328 86° East 125 144 4,100 629 Climbing Minneapolis Center
Fri 01:30:21 PM 42.0942 -94.4844 74° East 129 148 4,800 726 Climbing Minneapolis Center
Fri 01:31:23 PM 42.1072 -94.4306 72° East 136 157 5,600 726 Climbing Minneapolis Center
Fri 01:32:00 PM 42.0826 -94.4738 82° East  Level FlightAware Approximate
Fri 01:32:25 PM 42.1142 -94.3842 79° East 130 150 6,300  Level Minneapolis Center
Fri 01:33:00 PM 42.0934 -94.4114 76° East  Level FlightAware Approximate
Fri 01:33:27 PM 42.1158 -94.3342 87° East 126 145 6,900  Level Minneapolis Center
Fri 01:34:30 PM 42.1211 -94.2839 82° East 134 154 7,100 96 Climbing Minneapolis Center
Fri 01:35:32 PM 42.1494 -94.2275 56° Northeast 170 196 7,100  Level Minneapolis Center
Fri 01:36:34 PM 42.1892 -94.1939 32° Northeast 171 197 7,100 -48 Level Minneapolis Center
Fri 01:37:36 PM 42.2328 -94.1528 35° Northeast 175 201 7,000  Descending Minneapolis Center
Fri 01:38:38 PM 42.2808 -94.1669 348° North 183 211 7,100 48 Climbing Minneapolis Center
Fri 01:39:40 PM 42.3175 -94.1994 327° Northwest 179 206 7,100  Level Minneapolis Center
Fri 01:40:42 PM 42.3703 -94.1486 35° Northeast 193 222 7,100  Level Minneapolis Center
Fri 01:41:44 PM 42.3767 -94.0889 82° East 166 191 7,100  Level Minneapolis Center
Fri 01:42:46 PM 42.3850 -94.0253 80° East 165 190 7,100  Level Minneapolis Center
Fri 01:43:48 PM 42.3894 -93.9672 84° East 165 190 7,100  Level Minneapolis Center
Fri 01:44:50 PM 42.3908 -93.9042 88° East 169 194 7,100  Level Minneapolis Center
Fri 01:45:52 PM 42.3950 -93.8311 86° East 170 196 7,100  Level Minneapolis Center
Fri 01:46:54 PM 42.3986 -93.7664 86° East 172 198 7,100  Level Minneapolis Center
Fri 01:47:56 PM 42.4011 -93.6978 87° East 169 194 7,100  Level Minneapolis Center
Fri 01:48:59 PM 42.4056 -93.6347 85° East 170 196 7,100  Level Minneapolis Center
Fri 01:50:01 PM 42.4097 -93.5739 85° East 172 198 7,100  Level Minneapolis Center
Fri 01:51:03 PM 42.4119 -93.5022 88° East 169 194 7,100  Level Minneapolis Center
Fri 01:52:05 PM 42.4150 -93.4361 86° East 164 189 7,100  Level Minneapolis Center
Fri 01:53:07 PM 42.4194 -93.3786 84° East 159 183 7,100  Level Minneapolis Center
Fri 01:54:08 PM 42.4206 -93.3261 88° East 162 186 7,100  Level Minneapolis Center
Fri 01:55:11 PM 42.4236 -93.2536 87° East 159 183 7,100  Level Minneapolis Center
Fri 01:56:13 PM 42.4253 -93.1986 88° East 169 194 7,100  Level Minneapolis Center
Fri 01:58:17 PM 42.4303 -93.0661 87° East 163 188 7,100  Level Minneapolis Center
Fri 01:59:19 PM 42.4311 -93.0050 89° East 164 189 7,100  Level Minneapolis Center
Fri 02:00:21 PM 42.4381 -92.9431 81° East 166 191 7,100  Level Minneapolis Center
Fri 02:01:23 PM 42.4439 -92.8681 84° East 167 192 7,100  Level Minneapolis Center
Fri 02:02:25 PM 42.4444 -92.8039 89° East 170 196 7,100  Level Minneapolis Center
Fri 02:03:28 PM 42.4481 -92.7400 86° East 171 197 7,100  Level Minneapolis Center
Fri 02:04:30 PM 42.4494 -92.6792 88° East 168 193 7,100 -242 Level Minneapolis Center
Fri 02:05:32 PM 42.4506 -92.6169 89° East 167 192 6,600 -677 Descending Minneapolis Center
Fri 02:06:34 PM 42.4556 -92.5442 85° East 165 190 5,700 -629 Descending Minneapolis Center
Fri 02:07:36 PM 42.4606 -92.4797 84° East 169 194 5,300 -435 Descending Minneapolis Center
Fri 02:08:38 PM 42.4594 -92.4136 91° East 172 198 4,800 -484 Descending Minneapolis Center

Login

Don't have an account? Register now (free) for customized features, flight alerts, and more!